Total_Precipitation_Accumulation
2.23 2.47 3.25 4.05 4.52 3.40 2.45 1.96 1.63 1.43 1.18 0.89 0.71 0.71 1.00 1.44 1.78 1.80 1.69 1.52 0.96 0.83 0.88 1.22 1.46 1.40 1.26 1.17 1.14 1.13 1.09 1.07 1.08 1.06 1.05 0.91 0.78 0.68 0.67 0.65 0.64 0.65 0.65 0.67 0.67 0.71 0.70 0.69 0.74
1.93 2.64 3.80 4.58 3.79 2.63 2.26 1.80 1.56 1.23 0.95 0.71 0.61 0.53 0.64 0.52 0.55 1.00 1.85 1.78 0.98 0.76 0.85 1.15 1.51 1.43 1.34 1.29 1.28 1.24 1.12 1.03 1.03 0.96 0.93 0.89 0.84 0.74 0.74 0.76 0.68 0.67 0.66 0.66 0.63 0.63 0.68 0.72 0.79
2.22 3.09 4.23 4.25 2.94 2.26 2.21 1.67 1.26 0.88 0.65 0.66 0.64 0.52 0.60 0.75 0.90 1.37 1.74 1.29 0.90 0.77 0.84 1.27 1.64 1.47 1.36 1.35 1.44 1.37 1.23 1.10 0.99 0.92 0.90 0.88 0.90 0.86 0.90 0.82 0.76 0.76 0.74 0.72 0.75 0.75 0.80 0.84 0.90
2.47 3.50 3.82 3.18 2.42 1.85 1.61 1.35 1.03 0.89 0.62 0.40 0.48 0.62 0.57 0.83 1.03 1.23 1.19 0.88 0.68 0.67 0.72 1.12 1.60 1.46 1.32 1.29 1.41 1.34 1.19 1.17 1.08 1.02 0.99 0.98 1.03 1.12 1.00 0.91 0.90 0.84 0.83 0.79 0.83 0.85 0.93 0.98 0.97
2.72 3.47 3.41 2.99 2.24 1.93 1.47 1.16 0.98 0.95 0.74 0.48 0.44 0.68 0.75 1.08 1.13 1.12 1.03 0.88 0.69 0.67 0.68 0.94 1.39 1.36 1.22 1.19 1.28 1.26 1.20 1.21 1.09 1.03 1.04 1.05 1.09 1.23 1.29 1.15 1.04 0.99 0.96 0.92 0.90 0.88 0.88 0.93 1.03
3.12 3.19 3.20 2.98 2.42 2.14 1.69 1.25 0.90 0.81 0.68 0.54 0.50 0.71 0.96 1.36 1.29 1.22 1.05 1.02 0.89 0.77 0.67 0.78 1.18 1.24 1.16 1.18 1.22 1.22 1.16 1.08 0.96 0.97 1.02 1.04 1.05 1.17 1.30 1.25 1.15 1.12 1.07 1.06 1.03 1.00 0.96 0.97 1.00
2.90 2.85 2.54 2.15 2.28 2.42 1.74 1.12 1.03 0.95 0.87 0.76 0.54 0.76 1.06 1.43 1.27 1.03 1.02 1.14 1.24 1.12 0.95 0.87 0.91 0.95 1.06 1.15 1.17 1.29 1.32 1.11 0.96 0.91 0.92 0.92 0.94 0.99 1.08 1.13 1.10 1.07 1.09 1.10 1.08 1.06 1.04 1.08 1.06
2.37 2.41 2.16 2.08 2.31 2.47 1.49 0.98 0.82 0.78 0.79 0.53 0.43 0.67 0.86 1.08 1.16 1.06 1.02 1.14 1.15 1.13 1.09 1.01 1.01 0.96 0.96 1.01 1.19 1.43 1.54 1.35 1.08 0.95 0.88 0.90 0.88 0.88 0.99 1.00 1.07 1.10 1.15 1.20 1.22 1.18 1.12 1.19 1.19
2.03 2.32 2.36 2.29 2.22 1.95 1.18 0.89 0.70 0.49 0.51 0.46 0.35 0.51 0.65 0.71 0.88 1.03 1.08 1.12 1.07 1.03 1.04 0.99 1.00 1.02 1.11 1.12 1.19 1.44 1.59 1.54 1.17 0.96 0.94 0.85 0.71 0.84 0.92 0.88 1.13 1.24 1.33 1.34 1.35 1.28 1.18 1.18 1.20
2.07 2.25 2.12 1.74 1.54 1.26 0.96 0.82 0.66 0.67 0.75 0.62 0.45 0.54 0.66 0.71 0.79 0.88 0.94 0.89 0.87 0.87 0.88 0.88 0.88 0.85 0.87 0.92 1.24 1.46 1.35 1.42 1.14 1.08 1.00 0.92 0.96 1.01 0.86 0.84 1.10 1.27 1.38 1.35 1.30 1.29 1.20 1.07 0.92
1.75 1.85 1.53 1.33 1.14 0.92 0.85 0.80 0.61 0.71 0.86 0.65 0.46 0.52 0.65 0.77 0.85 0.81 0.84 0.81 0.75 0.75 0.67 0.62 0.66 0.64 0.65 0.74 0.90 1.18 1.42 1.47 1.42 1.36 1.26 1.20 1.11 0.95 0.84 0.84 0.90 1.02 1.12 1.06 1.12 1.13 1.03 0.97 0.92
1.53 1.46 1.27 1.15 0.85 0.89 0.89 0.74 0.66 0.62 0.64 0.47 0.43 0.48 0.61 0.79 0.90 0.83 0.82 0.83 0.78 0.80 0.78 0.63 0.54 0.55 0.54 0.57 0.69 0.92 1.14 1.28 1.29 1.21 1.11 1.30 1.24 1.01 0.90 0.98 0.99 1.00 1.08 1.24 1.28 1.22 1.12 1.03 0.93
1.41 1.47 1.19 0.98 0.85 0.90 0.83 0.75 0.64 0.65 0.53 0.43 0.43 0.54 0.72 0.83 0.90 0.90 0.86 0.87 0.84 0.83 0.88 0.76 0.58 0.48 0.50 0.52 0.58 0.64 0.88 1.02 1.02 1.16 1.12 1.16 1.15 1.02 0.93 0.95 1.09 1.06 1.10 1.29 1.40 1.25 1.18 1.20 1.14
1.24 1.21 1.15 0.99 0.91 0.92 0.92 0.74 0.63 0.75 0.65 0.55 0.59 0.69 0.82 0.86 0.85 0.84 0.80 0.77 0.74 0.74 0.77 0.72 0.63 0.58 0.53 0.50 0.50 0.53 0.58 0.74 0.76 0.79 0.77 0.96 1.09 1.07 1.08 0.99 1.06 1.21 1.26 1.26 1.29 1.27 1.20 1.17 1.20
1.03 1.11 1.25 1.14 1.09 1.05 0.92 0.95 0.73 0.76 0.77 0.66 0.63 0.68 0.87 0.81 0.77 0.74 0.70 0.64 0.59 0.61 0.62 0.65 0.66 0.68 0.64 0.62 0.61 0.57 0.58 0.61 0.69 0.77 0.77 0.89 1.00 1.07 1.09 0.98 1.01 1.18 1.36 1.33 1.28 1.23 1.25 1.11 1.10
1.17 1.45 1.69 1.39 1.19 1.16 1.05 1.12 0.83 0.84 0.79 0.68 0.64 0.61 0.70 0.61 0.59 0.59 0.57 0.53 0.50 0.47 0.45 0.53 0.55 0.60 0.64 0.67 0.69 0.65 0.69 0.70 0.68 0.74 0.73 0.76 0.92 1.07 1.16 1.09 1.05 1.20 1.39 1.54 1.59 1.44 1.39 1.29 1.24
1.48 1.58 1.50 1.41 1.13 1.14 1.05 1.05 0.90 0.79 0.73 0.62 0.59 0.58 0.56 0.50 0.45 0.44 0.44 0.42 0.38 0.36 0.33 0.37 0.43 0.48 0.55 0.62 0.69 0.69 0.72 0.86 0.94 0.84 0.71 0.76 0.89 1.01 1.21 1.30 1.25 1.28 1.44 1.50 1.51 1.54 1.44 1.43 1.38
1.19 1.20 1.19 1.25 1.05 0.98 0.94 0.86 0.88 0.74 0.59 0.52 0.49 0.48 0.47 0.45 0.37 0.36 0.35 0.34 0.33 0.31 0.29 0.31 0.38 0.39 0.41 0.52 0.67 0.76 0.73 0.83 1.05 1.09 1.08 1.11 1.17 1.22 1.37 1.47 1.46 1.46 1.52 1.50 1.62 1.82 1.64 1.47 1.48
0.88 0.89 0.93 0.86 0.73 0.83 0.83 0.77 0.81 0.76 0.61 0.47 0.40 0.39 0.36 0.37 0.37 0.33 0.29 0.30 0.28 0.26 0.24 0.28 0.34 0.36 0.38 0.45 0.55 0.65 0.75 0.93 1.14 1.20 1.27 1.41 1.43 1.44 1.57 1.68 1.71 1.64 1.56 1.62 1.79 2.16 2.04 1.69 1.53
0.81 0.80 0.84 0.75 0.64 0.67 0.76 0.79 0.77 0.70 0.62 0.49 0.40 0.31 0.26 0.28 0.27 0.24 0.23 0.22 0.21 0.18 0.17 0.22 0.31 0.39 0.44 0.50 0.64 0.78 1.02 1.14 1.28 1.43 1.42 1.45 1.51 1.54 1.60 1.82 1.93 1.86 1.85 1.95 1.99 2.23 2.38 2.10 1.90
0.79 0.72 0.66 0.69 0.66 0.64 0.70 0.88 0.84 0.76 0.61 0.50 0.40 0.31 0.24 0.26 0.23 0.18 0.17 0.18 0.17 0.15 0.18 0.23 0.36 0.56 0.75 0.85 1.08 1.34 1.59 1.68 1.61 1.61 1.66 1.64 1.66 1.73 1.71 1.82 2.02 1.99 1.95 2.01 2.20 2.49 2.78 2.69 2.42
0.79 0.55 0.48 0.58 0.70 0.78 0.65 0.89 0.78 0.72 0.66 0.51 0.43 0.35 0.27 0.28 0.28 0.22 0.21 0.20 0.18 0.20 0.29 0.45 0.67 0.97 1.22 1.36 1.54 1.75 1.86 1.89 1.83 1.85 1.83 1.81 1.72 1.66 1.66 1.79 1.99 2.14 2.22 2.28 2.34 2.35 2.69 2.92 2.75
0.62 0.50 0.48 0.57 0.67 0.68 0.58 0.69 0.65 0.58 0.65 0.57 0.52 0.46 0.39 0.37 0.31 0.31 0.33 0.34 0.38 0.47 0.65 0.94 1.19 1.43 1.59 1.64 1.72 1.91 2.06 2.21 2.23 2.12 1.97 1.85 1.82 1.75 1.67 1.72 1.79 1.83 1.93 2.06 2.17 2.25 2.48 2.65 2.78
0.51 0.57 0.60 0.61 0.68 0.76 0.54 0.53 0.63 0.55 0.54 0.58 0.59 0.51 0.44 0.41 0.39 0.46 0.59 0.70 0.81 0.90 1.08 1.28 1.42 1.56 1.56 1.57 1.62 1.74 1.92 2.08 2.11 2.13 2.09 1.96 1.83 1.73 1.63 1.58 1.67 1.69 1.70 1.84 1.95 2.05 2.30 2.47 2.59
0.56 0.70 0.85 0.86 0.84 0.73 0.46 0.53 0.57 0.41 0.39 0.46 0.52 0.51 0.46 0.43 0.50 0.68 0.83 0.97 1.08 1.18 1.27 1.29 1.29 1.33 1.35 1.37 1.40 1.47 1.53 1.56 1.63 1.73 1.65 1.52 1.41 1.36 1.36 1.28 1.33 1.45 1.51 1.70 1.77 1.71 1.77 1.96 2.18
0.52 0.53 0.74 0.84 0.76 0.66 0.51 0.66 0.60 0.42 0.37 0.36 0.40 0.48 0.55 0.65 0.75 0.87 0.98 1.07 1.11 1.23 1.28 1.22 1.19 1.18 1.11 1.06 1.10 1.12 1.15 1.20 1.23 1.24 1.19 1.11 1.07 1.04 1.01 1.00 1.01 1.08 1.16 1.38 1.60 1.58 1.59 1.67 1.77
0.43 0.43 0.45 0.60 0.58 0.61 0.55 0.66 0.60 0.40 0.35 0.35 0.36 0.45 0.60 0.78 1.02 1.19 1.19 1.09 1.00 1.05 1.12 1.09 1.04 0.98 0.90 0.84 0.87 0.90 0.96 0.98 0.96 0.93 0.88 0.86 0.80 0.80 0.78 0.80 0.90 0.95 0.94 1.04 1.18 1.36 1.44 1.51 1.59
0.34 0.37 0.46 0.67 0.77 0.78 0.66 0.73 0.67 0.48 0.41 0.39 0.42 0.53 0.72 0.90 1.10 1.37 1.50 1.37 1.10 0.92 0.94 0.90 0.86 0.88 0.85 0.81 0.83 0.83 0.75 0.68 0.68 0.70 0.65 0.63 0.67 0.71 0.71 0.68 0.70 0.77 0.79 0.88 0.99 1.05 1.16 1.23 1.39
0.34 0.39 0.49 0.63 0.64 0.84 1.08 1.08 0.80 0.67 0.58 0.56 0.61 0.67 0.76 1.01 1.29 1.43 1.47 1.34 1.15 0.88 0.80 0.78 0.75 0.78 0.82 0.75 0.77 0.77 0.67 0.54 0.50 0.49 0.46 0.46 0.50 0.56 0.57 0.59 0.66 0.66 0.67 0.69 0.71 0.77 0.83 0.90 1.00
0.32 0.39 0.52 0.79 0.80 0.76 0.95 1.01 0.64 0.67 0.76 0.69 0.75 0.84 0.86 0.92 0.96 0.97 1.08 1.08 1.01 0.87 0.80 0.85 0.88 0.88 0.80 0.72 0.67 0.64 0.57 0.49 0.48 0.44 0.40 0.42 0.46 0.49 0.50 0.55 0.59 0.58 0.64 0.66 0.67 0.67 0.69 0.79 0.87